"Pseudo-MPEC" for P11gUdD

Created 2021 Jun 11 7:07:17 UT using Find_Orb

Click here for an explanation of pseudo-MPECs

 
 Astrometry: 
     P11gUdD  C2021 06 08.29170 15 13 11.02 +01 41 36.4    ~6AGq 21.6 GVNEOCPG96
     P11gUdD  C2021 06 08.30205 15 13 10.54 +01 41 34.6    ~6AGq 21.7 GVNEOCPG96
     P11gUdD  C2021 06 08.30721 15 13 10.29 +01 41 33.9    ~6AGq       VNEOCPG96
     P11gUdD  C2021 06 10k++.rg(cuEkrC=(998:PLtFd1/5k0\.;EZ\MCXrh*p+2cy%WOQW#F51
     P11gUdD  C2021 06 10RvAstrometry4;redacted;e%qO%ja9'h7_a%i1eUtdclick4QmfF51
     P11gUdD  C2021 06 10bpr8+3$hered*SdxgW%VHqNa\m01Q;$q#NiYtx`'$JYF\8V*VM2=F51
     P11gUdD KC2021 06 11c%Zsje4H\kw%a0'for[.A=gFv3(5i2EpEexplanationcY$wRIb@H21
     P11gUdD KC2021 06 11qx1H#sY^.A%%.Ku-kdt6ZsymwPyF8?rj+@m$SQfu1l]6HYD9C)X7H21

Station data:
(F51) Pan-STARRS 1, Haleakala  (N20.707235 W156.255910)  US/Hawaii.
   Observers N. Primak, A. Schultz, S. Watters, J. Thiel, T. Goggia. Measurer
   PS1 Science Consortium. 1.8-m Ritchey-Chrétien + CCD.
(G96) Mt. Lemmon Survey  (N32.442754 W110.788720)  US/Arizona.  Observers T.
   A. Pruyne, B. M. Africano, E. J. Christensen, G. A. Farneth, D. C. Fuls,
   A. R. Gibbs, A. D. Grauer, H. Gröller, J. A. Johnson, R. A. Kowalski, S.
   M. Larson, G. J. Leonard, D. Rankin, R. L. Seaman, F. C. Shelly. 1.5-m
   reflector + 10K CCD.
(H21) Astronomical Research Observatory, Westfield  (N39.483057 W87.968270)
   US/Illinois. 0.76-m f/3.0 astrograph + CCD.

Orbital elements:  P11gUdD
   Perihelion 2022 Jun 17.324386 +/- 57.7863 TT =  7:47:07 (JD 2459747.824386)
Epoch 2021 Jun 11.0 TT = JDT 2459376.5   Earth MOID: 0.8747   AutoNEOCP
M 261.60580270 +/- 21.663165        (J2000 ecliptic)
n   0.26498178 +/- 0.0205822        Peri.  234.53663 +/- 13.731642
a   2.40063079 +/- 0.124281         Node   125.81941 +/- 1.4344668
e   0.2302651 +/- 0.0440112         Incl.   13.25842 +/- 0.2048388
P   3.72                   H 17.8   G  0.15   U 10.2  
q 1.84784924 +/- 0.0106845    Q 2.95341234 +/- 0.271691
From 8 observations 2021 June 8-11; mean residual 0".09
Residuals in arcseconds: 
210608 G96  .09-  .13+    210610 F51  .01-  .12-    210611 H21  .02+  .13+    
210608 G96  .08+  .11-    210610 F51  .08+  .15+    210611 H21  .02-  .13-    
210608 G96  .01+  .02-    210610 F51  .08-  .03-    

Ephemerides (geocentric):
Date (UTC) HH   RA              Dec         delta   r     elong  mag " sig PA
---- -- -- --  -------------   -----------  ------ ------ -----  --- ---- ---
2021 06 11 07  15 10 59.053   +01 33 09.50  1.7304 2.5957 140.5 21.9 .213 166
2021 06 11 08  15 10 57.297   +01 33 01.63  1.7306 2.5956 140.5 21.9 .241 167
2021 06 11 09  15 10 55.544   +01 32 53.74  1.7308 2.5955 140.4 21.9 .271 167
2021 06 11 10  15 10 53.792   +01 32 45.83  1.7310 2.5954 140.4 21.9 .301 167
2021 06 11 11  15 10 52.043   +01 32 37.90  1.7312 2.5953 140.4 21.9 .331 168
2021 06 11 12  15 10 50.297   +01 32 29.95  1.7314 2.5952 140.3 21.9 .363 168
2021 06 11 13  15 10 48.552   +01 32 21.97  1.7316 2.5951 140.3 21.9 .395 168
2021 06 11 14  15 10 46.810   +01 32 13.98  1.7318 2.5951 140.2 21.9 .428 168
2021 06 11 15  15 10 45.070   +01 32 05.96  1.7320 2.5950 140.2 21.9 .462 168
2021 06 11 16  15 10 43.332   +01 31 57.92  1.7322 2.5949 140.2 21.9 .496 168
2021 06 11 17  15 10 41.596   +01 31 49.86  1.7324 2.5948 140.1 21.9 .531 168
2021 06 11 18  15 10 39.863   +01 31 41.78  1.7326 2.5947 140.1 21.9 .567 168
2021 06 11 19  15 10 38.132   +01 31 33.67  1.7328 2.5946 140.1 21.9 .604 168
2021 06 11 20  15 10 36.403   +01 31 25.55  1.7330 2.5945 140.0 21.9 .641 168
2021 06 11 21  15 10 34.676   +01 31 17.40  1.7332 2.5944 140.0 21.9 .679 168
2021 06 11 22  15 10 32.952   +01 31 09.24  1.7335 2.5943 139.9 21.9 .717 168
2021 06 11 23  15 10 31.230   +01 31 01.05  1.7337 2.5942 139.9 21.9 .757 168
2021 06 12 00  15 10 29.510   +01 30 52.84  1.7339 2.5941 139.9 21.9 .797 168
2021 06 12 01  15 10 27.792   +01 30 44.61  1.7341 2.5940 139.8 21.9 .838 168
2021 06 12 02  15 10 26.077   +01 30 36.35  1.7343 2.5939 139.8 21.9 .880 168
2021 06 12 03  15 10 24.364   +01 30 28.08  1.7345 2.5939 139.7 21.9 .922 168
2021 06 12 04  15 10 22.653   +01 30 19.78  1.7347 2.5938 139.7 21.9 .965 168
2021 06 12 05  15 10 20.945   +01 30 11.47  1.7349 2.5937 139.7 21.9 1.01 168
2021 06 12 06  15 10 19.239   +01 30 03.13  1.7351 2.5936 139.6 21.9 1.05 168
2021 06 12 07  15 10 17.535   +01 29 54.77  1.7353 2.5935 139.6 21.9 1.10 168
2021 06 12 08  15 10 15.833   +01 29 46.39  1.7355 2.5934 139.5 21.9 1.14 168
2021 06 12 09  15 10 14.134   +01 29 37.99  1.7357 2.5933 139.5 21.9 1.19 168
2021 06 12 10  15 10 12.437   +01 29 29.57  1.7359 2.5932 139.5 21.9 1.24 168
2021 06 12 11  15 10 10.742   +01 29 21.13  1.7361 2.5931 139.4 21.9 1.29 168
2021 06 12 12  15 10 09.049   +01 29 12.66  1.7364 2.5930 139.4 21.9 1.34 168
2021 06 12 13  15 10 07.359   +01 29 04.17  1.7366 2.5929 139.4 21.9 1.39 168
2021 06 12 14  15 10 05.671   +01 28 55.67  1.7368 2.5928 139.3 21.9 1.44 168
2021 06 12 15  15 10 03.986   +01 28 47.14  1.7370 2.5927 139.3 21.9 1.49 168
2021 06 12 16  15 10 02.302   +01 28 38.59  1.7372 2.5927 139.2 21.9 1.54 168
2021 06 12 17  15 10 00.621   +01 28 30.02  1.7374 2.5926 139.2 21.9 1.59 168
2021 06 12 18  15 09 58.943   +01 28 21.43  1.7376 2.5925 139.2 21.9 1.64 168
2021 06 12 19  15 09 57.266   +01 28 12.82  1.7378 2.5924 139.1 21.9 1.70 168
2021 06 12 20  15 09 55.592   +01 28 04.18  1.7380 2.5923 139.1 21.9 1.75 168
2021 06 12 21  15 09 53.921   +01 27 55.53  1.7383 2.5922 139.0 21.9 1.81 168
2021 06 12 22  15 09 52.251   +01 27 46.85  1.7385 2.5921 139.0 21.9 1.87 168
2021 06 12 23  15 09 50.584   +01 27 38.16  1.7387 2.5920 139.0 21.9 1.92 168
2021 06 13 00  15 09 48.919   +01 27 29.44  1.7389 2.5919 138.9 21.9 1.98 168
2021 06 13 01  15 09 47.257   +01 27 20.70  1.7391 2.5918 138.9 21.9 2.04 168
2021 06 13 02  15 09 45.597   +01 27 11.94  1.7393 2.5917 138.9 21.9 2.10 168
2021 06 13 03  15 09 43.939   +01 27 03.16  1.7395 2.5916 138.8 21.9 2.16 168
2021 06 13 04  15 09 42.283   +01 26 54.36  1.7398 2.5915 138.8 21.9 2.22 168
2021 06 13 05  15 09 40.630   +01 26 45.54  1.7400 2.5914 138.7 21.9 2.28 167
2021 06 13 06  15 09 38.979   +01 26 36.69  1.7402 2.5914 138.7 21.9 2.34 167